Overview Statistics Trail Chart Weather Telemetry Raw packets
 

This is the latest recevied weather packets stored in our database for station/object KE6YLF. If no packets are shown the sender has not sent any weather packets the latest 10 day(s).

<< 80 81 82 83 84 85 86 >>
Time Temp. Humidity Pressure Rain* Wind** Luminosity Snow
1788106208 33.33° C 46% 1078.1 hPa 0 mm - - -
1788105905 32.78° C 46% 1078 hPa 0 mm - - -
1788105599 32.78° C 47% 1077.8 hPa 0 mm - - -
1788105296 32.78° C 47% 1077.7 hPa 0 mm - - -
1788104990 32.22° C 47% 1077.6 hPa 0 mm - - -
1788104685 32.78° C 47% 1077.8 hPa 0 mm - - -
1788104382 32.22° C 47% 1077.6 hPa 0 mm - - -
1788104077 32.22° C 48% 1077.5 hPa 0 mm - - -
1788103777 32.78° C 47% 1077.3 hPa 0 mm - - -
1788103472 32.78° C 47% 1077.5 hPa 0 mm - - -
1788103171 32.22° C 47% 1077.5 hPa 0 mm - - -
1788102865 32.22° C 47% 1077.4 hPa 0 mm - - -
1788102560 32.22° C 47% 1077.3 hPa 0 mm - - -
1788102261 31.67° C 48% 1077.5 hPa 0 mm - - -
1788101955 31.67° C 48% 1077.4 hPa 0 mm - - -
1788101655 31.67° C 48% 1077.4 hPa 0 mm - - -
1788101350 31.67° C 48% 1077.4 hPa 0 mm - - -
1788101047 31.11° C 49% 1077.6 hPa 0 mm - - -
1788100741 31.11° C 49% 1077.5 hPa 0 mm - - -
1788100436 31.11° C 49% 1077.3 hPa 0 mm - - -
1788100135 30.56° C 49% 1077.2 hPa 0 mm - - -
1788099830 30.56° C 50% 1077.3 hPa 0 mm - - -
1788099526 30.56° C 50% 1077.3 hPa 0 mm - - -
1788099221 30° C 51% 1077.3 hPa 0 mm - - -
1788098916 30° C 51% 1077.4 hPa 0 mm - - -

* Rain latest hour (hover to see other rain measurements)
** Current wind speed in m/s (hover to see current wind gust speed)